Date,Time,Wetness (Wet Dry or Ice),Wind Speed (m/s),Temperature (C),Humidity (%),Pressure (mb),Radiation (W/m^2)
2018-12-09,06:30:00,DRY,2.47,12.03,7.7,778.67,0.8
2018-12-09,06:35:00,DRY,2.05,11.85,9.0,779.00,0.8
2018-12-09,06:40:00,DRY,2.73,11.70,9.0,779.00,1.5
2018-12-09,06:45:00,DRY,2.35,11.35,9.5,779.00,0.9
2018-12-09,06:50:00,DRY,2.33,11.20,10.7,778.67,1.3
2018-12-09,06:55:00,DRY,2.80,11.40,10.0,779.00,1.7
2018-12-09,07:00:00,DRY,2.93,11.20,9.3,779.00,0.6
2018-12-09,07:05:00,DRY,3.35,11.25,8.0,779.00,1.4
2018-12-09,07:10:00,DRY,3.40,11.40,7.0,779.00,1.0
2018-12-09,07:15:00,DRY,3.45,11.40,7.0,779.00,1.9
2018-12-09,07:20:00,DRY,3.27,11.43,7.0,779.00,0.5
2018-12-09,07:25:00,DRY,2.90,11.55,7.5,779.00,1.0
2018-12-09,07:30:00,DRY,3.13,11.33,8.7,779.00,0.9
2018-12-09,07:35:00,DRY,3.10,11.45,9.5,779.00,1.9
2018-12-09,07:40:00,DRY,3.37,11.30,8.7,779.00,2.8
2018-12-09,07:45:00,DRY,2.80,11.20,9.0,779.00,5.0
2018-12-09,07:50:00,DRY,2.90,11.27,8.0,779.00,8.4
2018-12-09,07:55:00,DRY,2.70,11.35,8.0,779.00,10.9
2018-12-09,08:00:00,DRY,2.90,11.23,8.0,779.00,17.3
2018-12-09,08:05:00,DRY,2.75,10.95,8.0,779.00,27.2
2018-12-09,08:10:00,DRY,1.93,10.70,8.7,779.00,40.0
2018-12-09,08:15:00,DRY,3.10,10.85,9.0,779.00,48.6
2018-12-09,08:20:00,DRY,2.47,10.97,8.7,779.00,52.3
2018-12-09,08:25:00,DRY,1.65,11.15,7.0,779.50,62.2
2018-12-09,08:30:00,DRY,2.20,11.13,8.3,779.00,70.5
2018-12-09,08:35:00,DRY,2.25,11.00,8.0,779.00,88.2
2018-12-09,08:40:00,DRY,3.97,11.27,9.3,779.00,127.7
2018-12-09,08:45:00,DRY,3.95,11.50,7.5,779.00,156.9
2018-12-09,08:50:00,DRY,2.43,11.67,7.0,779.00,223.4
2018-12-09,08:55:00,DRY,1.75,11.85,8.5,779.50,190.6
2018-12-09,09:00:00,DRY,2.33,11.27,10.0,780.00,219.8
2018-12-09,09:05:00,DRY,2.90,11.10,9.5,779.00,182.3
2018-12-09,09:10:00,DRY,3.60,11.27,8.3,779.00,172.2
2018-12-09,09:15:00,DRY,3.80,11.15,9.0,779.00,134.0
2018-12-09,09:20:00,DRY,2.47,11.70,6.0,779.33,122.4
2018-12-09,09:25:00,DRY,2.30,11.75,8.0,780.00,143.8
2018-12-09,09:30:00,DRY,1.30,11.53,7.7,780.00,169.9
2018-12-09,09:35:00,DRY,1.60,11.85,7.0,780.00,155.3
2018-12-09,09:40:00,DRY,2.03,11.97,7.7,780.00,153.5
2018-12-09,09:45:00,DRY,2.85,12.20,6.5,780.00,197.5
2018-12-09,09:50:00,DRY,2.60,12.50,5.0,780.00,344.5
2018-12-09,09:55:00,DRY,2.20,12.95,6.0,780.00,291.8
2018-12-09,10:00:00,DRY,1.83,12.80,6.0,780.00,250.6
2018-12-09,10:05:00,DRY,3.15,12.75,5.0,780.00,421.8
2018-12-09,10:10:00,DRY,2.80,12.93,5.7,780.00,372.7
2018-12-09,10:15:00,DRY,2.25,12.95,6.5,780.00,369.0
2018-12-09,10:20:00,DRY,1.43,12.87,8.3,780.00,410.7
2018-12-09,10:25:00,DRY,3.25,12.60,9.0,780.00,373.4
2018-12-09,10:30:00,DRY,2.00,12.73,10.0,780.00,486.5
2018-12-09,10:35:00,DRY,1.90,12.90,9.5,780.00,281.7
2018-12-09,10:40:00,DRY,1.57,12.80,9.7,780.00,278.9
2018-12-09,10:45:00,DRY,0.95,13.00,10.0,780.00,331.2
2018-12-09,10:50:00,DRY,1.23,13.17,11.7,780.00,340.9
2018-12-09,10:55:00,DRY,1.30,13.05,11.5,780.00,356.8
2018-12-09,11:00:00,DRY,1.23,13.30,10.3,780.00,377.8
2018-12-09,11:05:00,DRY,1.05,13.30,9.5,780.00,324.8
2018-12-09,11:10:00,DRY,1.57,12.43,8.7,780.00,313.3
2018-12-09,11:15:00,DRY,2.00,12.05,10.5,780.00,228.7
2018-12-09,11:20:00,DRY,3.10,11.43,12.0,780.00,465.0
2018-12-09,11:25:00,DRY,3.30,11.30,13.0,780.00,679.2
2018-12-09,11:30:00,DRY,1.87,11.70,13.3,780.00,594.2
2018-12-09,11:35:00,DRY,1.75,12.20,14.0,780.00,641.7
2018-12-09,11:40:00,DRY,2.53,12.30,19.7,780.00,672.2
2018-12-09,11:45:00,DRY,2.80,11.80,18.0,780.00,664.0
2018-12-09,11:50:00,DRY,2.63,11.27,28.7,780.00,675.7
2018-12-09,11:55:00,DRY,2.05,10.90,30.0,780.00,472.0
2018-12-09,12:00:00,DRY,1.37,11.63,22.0,779.67,339.1
2018-12-09,12:05:00,DRY,1.55,12.00,21.0,779.50,479.5
2018-12-09,12:10:00,DRY,2.00,12.30,19.0,779.00,467.3
2018-12-09,12:15:00,DRY,1.45,12.80,22.0,779.00,440.0
2018-12-09,12:20:00,DRY,1.97,12.23,24.7,779.00,469.9
2018-12-09,12:25:00,DRY,2.10,12.25,23.0,779.00,504.5
2018-12-09,12:30:00,DRY,2.20,13.00,16.3,779.00,433.0
2018-12-09,12:35:00,DRY,1.55,13.05,18.5,779.00,452.3
2018-12-09,12:40:00,DRY,2.60,12.77,20.0,779.00,568.0
2018-12-09,12:45:00,DRY,3.50,12.95,17.5,779.00,795.8
2018-12-09,12:50:00,DRY,3.17,13.23,14.7,779.00,716.8
2018-12-09,12:55:00,DRY,2.20,13.35,13.5,779.00,712.7
2018-12-09,13:00:00,DRY,2.30,13.67,12.0,779.00,704.4
2018-12-09,13:05:00,DRY,2.15,13.50,16.0,779.00,706.0
2018-12-09,13:10:00,DRY,1.20,13.13,22.0,779.00,705.0
2018-12-09,13:15:00,DRY,0.60,12.25,25.5,779.00,703.3
2018-12-09,13:20:00,DRY,2.30,12.10,25.0,779.00,702.6
2018-12-09,13:25:00,DRY,2.45,12.85,17.0,779.00,696.3
2018-12-09,13:30:00,DRY,0.50,12.70,18.0,779.00,701.7
2018-12-09,13:35:00,DRY,0.90,11.70,25.0,779.00,697.2
2018-12-09,13:40:00,DRY,1.37,11.53,28.7,779.00,697.9
2018-12-09,13:45:00,DRY,0.55,11.90,22.0,779.00,714.9
2018-12-09,13:50:00,DRY,1.27,12.13,24.0,779.00,423.4
2018-12-09,13:55:00,DRY,1.90,11.40,25.0,779.00,362.8
2018-12-09,14:00:00,DRY,2.80,11.27,28.0,779.00,525.6
2018-12-09,14:05:00,DRY,2.10,11.35,22.5,779.00,470.4
2018-12-09,14:10:00,DRY,1.97,11.93,17.7,779.00,757.1
2018-12-09,14:15:00,DRY,3.75,12.55,14.0,779.00,794.8
2018-12-09,14:20:00,DRY,2.50,12.43,14.7,779.00,774.1
2018-12-09,14:25:00,DRY,2.70,12.25,13.5,779.00,405.7
2018-12-09,14:30:00,DRY,2.70,11.77,16.3,778.67,570.4
2018-12-09,14:35:00,DRY,1.50,11.95,16.0,779.00,481.8
2018-12-09,14:40:00,DRY,1.13,11.63,14.7,779.00,222.1
2018-12-09,14:45:00,DRY,1.35,11.60,15.5,779.00,187.5
2018-12-09,14:50:00,DRY,1.67,11.63,12.3,779.00,141.6
2018-12-09,14:55:00,DRY,1.80,11.40,14.5,779.00,146.7
2018-12-09,15:00:00,DRY,2.67,11.37,11.7,778.00,148.1
2018-12-09,15:05:00,DRY,2.95,11.45,14.0,778.50,175.3
2018-12-09,15:10:00,DRY,3.17,11.37,14.3,778.33,153.8
2018-12-09,15:15:00,DRY,2.30,11.35,13.0,778.00,118.7
2018-12-09,15:20:00,DRY,2.60,11.33,12.3,779.00,254.5
2018-12-09,15:25:00,DRY,4.65,11.55,10.0,778.00,298.7
2018-12-09,15:30:00,DRY,3.73,11.80,10.7,778.00,304.0
2018-12-09,15:35:00,DRY,3.15,11.65,10.0,778.00,257.8
2018-12-09,15:40:00,DRY,1.13,11.23,27.0,778.00,264.4
2018-12-09,15:45:00,DRY,1.80,10.55,21.5,778.00,613.2
2018-12-09,15:50:00,DRY,2.17,10.97,25.3,778.00,181.1
2018-12-09,15:55:00,DRY,1.50,10.15,30.0,778.00,104.1
2018-12-09,16:00:00,DRY,1.33,10.23,23.7,778.00,212.3
2018-12-09,16:05:00,DRY,2.20,10.20,22.5,778.00,172.5
2018-12-09,16:10:00,DRY,3.27,10.30,15.7,778.33,131.9
2018-12-09,16:15:00,DRY,3.60,10.35,16.0,778.50,88.5
2018-12-09,16:20:00,DRY,2.97,10.23,16.7,778.67,69.8
2018-12-09,16:25:00,DRY,3.60,10.35,14.5,779.00,63.2
2018-12-09,16:30:00,DRY,4.83,10.27,13.7,778.67,106.3
2018-12-09,16:35:00,DRY,6.60,10.40,12.5,778.00,139.4
2018-12-09,16:40:00,DRY,4.90,10.57,12.3,778.67,154.8
2018-12-09,16:45:00,DRY,4.15,10.85,11.5,779.00,328.5
2018-12-09,16:50:00,DRY,3.83,10.87,12.3,779.00,321.1
2018-12-09,16:55:00,DRY,2.15,10.55,14.0,779.00,248.6
2018-12-09,17:00:00,DRY,2.50,10.43,11.7,779.00,165.0
2018-12-09,17:05:00,DRY,1.30,10.35,12.0,779.00,139.4
2018-12-09,17:10:00,DRY,2.67,10.23,12.3,779.00,192.5
2018-12-09,17:15:00,DRY,2.40,10.10,13.5,779.00,174.1
2018-12-09,17:20:00,DRY,2.40,10.10,12.0,779.00,144.6
2018-12-09,17:25:00,DRY,3.25,10.05,13.0,779.00,73.7
2018-12-09,17:30:00,DRY,4.10,9.97,13.0,779.00,52.1
2018-12-09,17:35:00,DRY,1.75,9.85,13.0,779.00,43.8
2018-12-09,17:40:00,DRY,1.13,9.63,13.3,779.00,25.8
2018-12-09,17:45:00,DRY,0.50,9.40,21.5,779.00,20.6
2018-12-09,17:50:00,DRY,0.83,9.07,31.0,779.00,16.8
2018-12-09,17:55:00,DRY,1.45,8.95,28.5,779.00,13.1
2018-12-09,18:00:00,DRY,1.57,9.03,23.3,779.00,10.6
2018-12-09,18:05:00,DRY,2.05,9.00,22.5,779.00,6.8
2018-12-09,18:10:00,DRY,1.63,8.57,26.0,779.00,6.0
2018-12-09,18:15:00,DRY,1.00,8.40,29.5,779.00,4.0
2018-12-09,18:20:00,DRY,0.67,8.47,31.0,779.00,2.6
2018-12-09,18:25:00,DRY,0.80,8.60,22.0,779.00,1.6
2018-12-09,18:30:00,DRY,1.43,8.80,26.0,779.00,1.3
2018-12-09,18:35:00,DRY,1.20,8.50,28.0,779.00,2.4
2018-12-09,18:40:00,DRY,1.17,8.57,24.3,779.67,0.8
2018-12-09,18:45:00,DRY,2.10,9.00,15.5,779.50,2.0
2018-12-09,18:50:00,DRY,2.53,8.97,15.0,780.00,0.8
2018-12-09,18:55:00,DRY,1.20,8.85,17.0,780.00,1.0
2018-12-09,19:00:00,DRY,2.77,9.43,14.3,780.00,1.3
2018-12-09,19:05:00,DRY,1.55,9.85,18.5,780.00,1.4
2018-12-09,19:10:00,DRY,2.07,10.83,33.7,780.00,1.5
2018-12-09,19:15:00,DRY,3.45,11.20,34.5,780.00,1.1
2018-12-09,19:20:00,DRY,3.63,11.13,39.0,780.00,1.1
2018-12-09,19:25:00,WET,2.20,11.15,39.0,780.00,0.4
2018-12-09,19:30:00,DRY,2.03,10.87,36.3,780.00,1.7
2018-12-09,19:35:00,DRY,2.15,10.95,36.5,780.00,1.1
2018-12-09,19:40:00,DRY,1.70,11.03,36.0,780.00,1.2
2018-12-09,19:45:00,DRY,1.10,10.90,36.0,780.00,2.1
2018-12-09,19:50:00,DRY,0.80,10.83,34.7,780.00,1.0
2018-12-09,19:55:00,DRY,0.95,10.70,34.0,780.00,1.4
2018-12-09,20:00:00,DRY,0.97,10.57,34.0,780.00,0.6
2018-12-09,20:05:00,DRY,0.65,10.60,34.0,780.00,1.5
2018-12-09,20:10:00,DRY,2.03,10.70,33.7,780.00,1.6
2018-12-09,20:15:00,DRY,3.05,10.50,35.0,780.00,1.6
2018-12-09,20:20:00,DRY,2.53,10.67,34.7,780.00,0.9
2018-12-09,20:25:00,DRY,2.80,10.65,33.0,780.00,1.4
2018-12-09,20:30:00,DRY,1.73,10.57,33.7,780.00,1.4
2018-12-09,20:35:00,DRY,0.95,10.80,34.0,780.00,0.9
2018-12-09,20:40:00,DRY,0.40,10.93,33.0,780.00,1.3
2018-12-09,20:45:00,DRY,0.45,10.90,33.0,780.00,1.3
2018-12-09,20:50:00,DRY,1.07,10.90,32.3,780.00,0.7
2018-12-09,20:55:00,DRY,1.70,11.10,31.0,780.00,1.7
2018-12-09,21:00:00,DRY,1.43,10.93,32.3,780.00,1.4
2018-12-09,21:05:00,DRY,1.25,10.75,32.0,780.00,1.5
2018-12-09,21:10:00,DRY,1.50,10.77,32.0,780.00,1.2
2018-12-09,21:15:00,DRY,1.20,10.75,31.5,780.00,1.9
2018-12-09,21:20:00,DRY,0.77,10.90,31.0,780.00,2.1
2018-12-09,21:25:00,DRY,0.40,10.90,31.5,780.00,1.4
2018-12-09,21:30:00,DRY,0.37,10.90,31.0,780.00,1.3
2018-12-09,21:35:00,DRY,0.75,10.90,31.0,780.00,0.6
2018-12-09,21:40:00,DRY,1.20,10.57,33.0,780.00,1.0
2018-12-09,21:45:00,DRY,0.65,10.75,33.0,780.00,2.2
2018-12-09,21:50:00,DRY,0.87,10.83,31.7,780.00,1.4
2018-12-09,21:55:00,DRY,1.20,10.30,31.5,780.00,1.5
2018-12-09,22:00:00,DRY,1.60,9.93,27.3,780.00,1.4
2018-12-09,22:05:00,DRY,1.60,9.90,26.5,780.00,0.2
2018-12-09,22:10:00,DRY,2.17,10.03,24.7,780.00,0.8
2018-12-09,22:15:00,DRY,2.45,10.10,24.5,780.00,0.3
2018-12-09,22:20:00,DRY,2.23,10.10,24.0,780.00,1.3
2018-12-09,22:25:00,DRY,1.90,10.00,25.0,780.00,1.7
2018-12-09,22:30:00,DRY,1.83,10.00,24.7,780.00,1.8
2018-12-09,22:35:00,DRY,1.80,10.00,25.0,780.00,2.5
2018-12-09,22:40:00,DRY,2.13,10.07,23.7,780.00,2.1
2018-12-09,22:45:00,DRY,2.50,9.90,23.5,780.00,0.9
2018-12-09,22:50:00,DRY,2.50,9.87,23.0,780.00,1.5
2018-12-09,22:55:00,DRY,3.05,10.00,23.5,780.00,0.9
2018-12-09,23:00:00,DRY,3.50,10.07,23.7,780.00,1.6
2018-12-09,23:05:00,DRY,3.25,10.10,24.0,780.00,1.4
2018-12-09,23:10:00,DRY,2.63,10.07,25.0,780.00,1.4
2018-12-09,23:15:00,DRY,3.10,10.00,25.0,780.00,1.7
2018-12-09,23:20:00,DRY,3.77,10.20,24.0,780.00,1.2
2018-12-09,23:25:00,DRY,3.10,10.05,24.5,780.00,1.4
2018-12-09,23:30:00,DRY,3.90,9.97,24.7,780.00,1.5
2018-12-09,23:35:00,DRY,4.50,10.00,25.0,780.00,1.1
2018-12-09,23:40:00,DRY,2.83,9.97,24.7,780.00,1.1
2018-12-09,23:45:00,DRY,2.40,9.95,24.0,780.00,1.8
2018-12-09,23:50:00,DRY,2.93,10.03,24.0,780.00,0.6
2018-12-09,23:55:00,DRY,2.80,10.00,23.5,780.00,1.4
2018-12-10,00:00:00,DRY,2.83,10.07,23.0,780.00,1.7
2018-12-10,00:05:00,DRY,2.00,9.95,23.0,780.00,0.4
2018-12-10,00:10:00,DRY,3.47,9.87,23.0,780.00,0.9
2018-12-10,00:15:00,DRY,2.45,10.00,23.0,780.00,0.6
2018-12-10,00:20:00,DRY,2.97,9.80,23.0,780.00,1.0
2018-12-10,00:25:00,DRY,3.10,9.85,21.5,780.00,1.4
2018-12-10,00:30:00,DRY,2.90,9.67,19.3,780.00,1.4
2018-12-10,00:35:00,DRY,3.40,9.70,18.0,780.00,1.8
2018-12-10,00:40:00,DRY,3.50,9.80,18.3,780.00,0.8
2018-12-10,00:45:00,DRY,3.05,9.80,18.5,780.00,1.5
2018-12-10,00:50:00,DRY,3.17,9.70,22.3,780.00,1.4
2018-12-10,00:55:00,DRY,4.30,9.80,24.5,780.00,1.5
2018-12-10,01:00:00,DRY,3.77,9.80,25.0,780.00,1.8
2018-12-10,01:05:00,DRY,3.30,9.70,25.5,780.00,1.2
2018-12-10,01:10:00,DRY,2.83,9.57,26.0,780.00,0.8
2018-12-10,01:15:00,DRY,3.75,9.60,24.5,780.00,1.0
2018-12-10,01:20:00,DRY,3.83,9.60,26.7,780.00,1.0
2018-12-10,01:25:00,DRY,1.90,9.60,24.5,780.00,0.7
2018-12-10,01:30:00,DRY,1.93,9.63,24.7,780.00,1.4
2018-12-10,01:35:00,DRY,3.15,9.55,26.0,780.00,0.8
2018-12-10,01:40:00,DRY,3.67,9.57,27.7,780.00,1.4
2018-12-10,01:45:00,DRY,2.70,9.60,27.0,780.00,1.8
2018-12-10,01:50:00,DRY,2.10,9.70,26.3,780.00,0.4
2018-12-10,01:55:00,DRY,1.35,9.60,26.0,780.00,0.5
2018-12-10,02:00:00,DRY,3.83,9.53,26.0,779.33,1.2
2018-12-10,02:05:00,DRY,3.50,9.60,26.0,779.00,2.1
2018-12-10,02:10:00,DRY,4.20,9.77,25.3,779.00,1.3
2018-12-10,02:15:00,DRY,3.85,9.80,24.5,780.00,0.9
2018-12-10,02:20:00,DRY,3.00,9.73,22.7,779.00,1.2
2018-12-10,02:25:00,DRY,3.50,9.65,23.0,779.00,2.7
2018-12-10,02:30:00,DRY,3.03,10.03,21.7,779.00,1.5
2018-12-10,02:35:00,DRY,3.25,10.10,22.0,779.00,1.6
2018-12-10,02:40:00,DRY,3.13,10.00,22.0,779.00,1.6
2018-12-10,02:45:00,DRY,2.85,9.90,21.0,779.00,1.4
2018-12-10,02:50:00,DRY,3.30,10.00,21.0,779.00,1.3
2018-12-10,02:55:00,DRY,3.90,9.95,21.5,779.00,1.2
2018-12-10,03:00:00,DRY,3.30,9.97,21.7,779.00,1.6
2018-12-10,03:05:00,DRY,3.25,10.10,20.0,779.00,1.1
2018-12-10,03:10:00,DRY,2.67,10.10,20.3,779.00,0.9
2018-12-10,03:15:00,DRY,3.20,10.10,20.0,779.00,0.7
2018-12-10,03:20:00,DRY,2.47,10.03,18.7,779.00,0.6
2018-12-10,03:25:00,DRY,2.45,10.05,20.5,779.00,0.7
2018-12-10,03:30:00,DRY,3.00,10.03,26.0,779.00,1.1
2018-12-10,03:35:00,DRY,2.55,10.00,24.0,779.00,1.0
2018-12-10,03:40:00,DRY,2.23,10.00,25.7,779.00,1.2
2018-12-10,03:45:00,DRY,1.75,10.30,28.5,779.00,2.2
2018-12-10,03:50:00,DRY,2.07,10.10,24.0,779.00,1.9
2018-12-10,03:55:00,DRY,1.35,10.00,28.5,779.00,0.9
2018-12-10,04:00:00,DRY,1.47,9.90,27.7,779.00,1.3
2018-12-10,04:05:00,DRY,2.10,9.60,25.0,779.00,1.5
2018-12-10,04:10:00,DRY,1.97,9.67,22.0,779.00,1.8
2018-12-10,04:15:00,DRY,1.95,9.70,20.5,779.00,0.4
2018-12-10,04:20:00,DRY,2.40,9.77,18.3,779.00,0.7
2018-12-10,04:25:00,DRY,2.00,9.80,16.5,779.00,1.9
2018-12-10,04:30:00,DRY,1.93,9.70,17.0,779.00,0.7
2018-12-10,04:35:00,DRY,1.85,9.60,16.0,779.00,0.9
2018-12-10,04:40:00,DRY,2.17,9.53,15.7,779.00,1.1
2018-12-10,04:45:00,DRY,2.20,9.50,14.5,779.00,1.1
2018-12-10,04:50:00,DRY,1.77,9.77,13.3,779.00,1.8
2018-12-10,04:55:00,DRY,1.65,9.90,13.0,779.00,1.7
2018-12-10,05:00:00,DRY,1.83,9.90,13.0,779.00,1.2
2018-12-10,05:05:00,DRY,1.70,10.00,13.0,779.00,0.8
2018-12-10,05:10:00,DRY,2.03,9.97,15.0,779.00,0.6
2018-12-10,05:15:00,DRY,1.15,10.10,14.0,779.00,1.7
2018-12-10,05:20:00,DRY,1.70,10.27,13.3,778.67,1.4
2018-12-10,05:25:00,DRY,1.95,10.30,15.5,779.00,1.5
2018-12-10,05:30:00,DRY,2.63,10.17,15.7,779.00,1.4
2018-12-10,05:35:00,DRY,2.45,10.40,13.5,779.00,0.7
2018-12-10,05:40:00,DRY,2.17,10.40,12.3,778.33,1.2
2018-12-10,05:45:00,DRY,1.80,10.35,13.0,778.50,0.8
2018-12-10,05:50:00,DRY,1.90,10.33,12.0,778.67,1.0
2018-12-10,05:55:00,DRY,2.55,10.30,12.0,778.00,0.6
2018-12-10,06:00:00,DRY,2.50,10.27,12.0,778.00,0.6
2018-12-10,06:05:00,DRY,2.70,10.25,12.0,778.50,2.1
2018-12-10,06:10:00,DRY,2.60,10.27,13.3,779.00,1.0
2018-12-10,06:15:00,DRY,2.55,10.25,14.5,778.00,0.8
2018-12-10,06:20:00,DRY,1.77,10.13,16.0,778.67,0.4
2018-12-10,06:25:00,DRY,2.05,10.25,15.5,779.00,0.7
2018-12-10,06:30:00,DRY,2.27,10.03,16.0,778.67,1.6
2018-12-10,06:35:00,DRY,1.70,10.20,15.5,778.50,0.7
2018-12-10,06:40:00,DRY,2.63,10.23,14.3,779.00,1.0
2018-12-10,06:45:00,DRY,2.75,10.00,13.5,779.00,1.4
2018-12-10,06:50:00,DRY,2.27,9.97,14.0,779.00,1.6
2018-12-10,06:55:00,DRY,2.55,9.90,13.5,779.00,1.3
2018-12-10,07:00:00,DRY,2.07,10.13,16.0,779.00,1.0
2018-12-10,07:05:00,DRY,2.60,10.15,13.0,779.00,1.4
2018-12-10,07:10:00,DRY,2.33,10.13,15.7,779.00,1.1
2018-12-10,07:15:00,DRY,2.75,9.95,13.5,779.00,1.1
2018-12-10,07:20:00,DRY,2.60,9.70,13.7,779.00,1.2
2018-12-10,07:25:00,DRY,2.25,9.65,13.5,779.00,1.7
2018-12-10,07:30:00,DRY,2.27,9.53,13.0,779.00,0.4
2018-12-10,07:35:00,DRY,2.20,9.25,12.5,779.00,1.1
2018-12-10,07:40:00,DRY,2.47,9.30,11.7,779.00,1.8
2018-12-10,07:45:00,DRY,2.85,9.30,10.5,779.00,2.5
2018-12-10,07:50:00,DRY,3.60,9.33,10.0,779.00,3.7
2018-12-10,07:55:00,DRY,3.70,9.35,10.5,779.00,5.2
2018-12-10,08:00:00,DRY,3.13,9.10,11.0,779.00,7.1
2018-12-10,08:05:00,DRY,2.85,8.95,10.5,779.00,10.8
2018-12-10,08:10:00,DRY,2.47,9.03,11.0,779.00,17.1
2018-12-10,08:15:00,DRY,2.40,9.10,11.5,779.00,23.4
2018-12-10,08:20:00,DRY,1.77,9.07,12.0,779.00,29.4
2018-12-10,08:25:00,DRY,2.55,8.80,11.5,779.00,35.8
2018-12-10,08:30:00,DRY,2.23,8.87,12.0,779.00,39.1
2018-12-10,08:35:00,DRY,1.80,8.95,12.0,779.00,36.9
2018-12-10,08:40:00,DRY,2.27,9.20,11.0,779.00,34.5
2018-12-10,08:45:00,DRY,2.85,9.20,10.5,779.00,56.7
2018-12-10,08:50:00,DRY,2.80,9.33,10.3,779.00,65.0
2018-12-10,08:55:00,DRY,2.45,9.35,10.5,779.00,62.0
2018-12-10,09:00:00,DRY,1.30,9.23,11.7,779.00,112.0
2018-12-10,09:05:00,DRY,1.80,9.30,11.5,779.00,142.0
2018-12-10,09:10:00,DRY,2.43,9.17,13.7,779.00,215.1
2018-12-10,09:15:00,DRY,2.55,9.30,13.0,779.00,254.9
2018-12-10,09:20:00,DRY,2.03,9.53,14.0,779.33,218.9
2018-12-10,09:25:00,DRY,0.80,9.35,14.0,779.50,182.3
2018-12-10,09:30:00,DRY,1.07,9.10,15.0,779.67,320.7
2018-12-10,09:35:00,DRY,1.15,10.00,14.5,779.50,336.3
2018-12-10,09:40:00,DRY,0.97,10.80,13.0,779.33,360.9
2018-12-10,09:45:00,DRY,1.70,10.75,12.5,779.00,410.7
2018-12-10,09:50:00,DRY,1.73,10.77,12.7,779.00,463.6
2018-12-10,09:55:00,DRY,1.70,10.65,12.0,779.50,258.1
2018-12-10,10:00:00,DRY,1.13,10.67,13.3,780.00,272.0
2018-12-10,10:05:00,DRY,0.65,10.70,13.0,780.00,245.5
2018-12-10,10:10:00,DRY,0.90,10.77,16.0,780.00,263.7
2018-12-10,10:15:00,DRY,1.55,10.80,14.0,780.00,277.0
2018-12-10,10:20:00,DRY,1.67,10.67,14.3,780.00,285.9
2018-12-10,10:25:00,DRY,0.70,11.00,16.0,780.00,293.9
2018-12-10,10:30:00,DRY,0.73,10.80,16.7,780.00,474.6
2018-12-10,10:35:00,DRY,1.60,10.95,16.0,780.00,403.1
2018-12-10,10:40:00,DRY,1.13,11.30,19.3,780.00,628.2
2018-12-10,10:45:00,DRY,1.15,11.50,20.0,780.00,694.9
2018-12-10,10:50:00,DRY,1.03,11.20,18.0,780.00,542.0
2018-12-10,10:55:00,DRY,1.00,11.55,20.5,780.00,523.5
2018-12-10,11:00:00,DRY,0.90,11.73,21.0,780.00,353.9
2018-12-10,11:05:00,DRY,1.15,11.25,21.0,780.00,367.2
2018-12-10,11:10:00,DRY,0.83,11.57,22.7,780.00,522.1
2018-12-10,11:15:00,DRY,1.15,10.95,23.0,780.00,317.2
2018-12-10,11:20:00,DRY,1.87,10.50,20.7,780.00,308.5
2018-12-10,11:25:00,DRY,2.00,10.45,23.0,780.00,342.5
2018-12-10,11:30:00,DRY,1.37,10.63,24.0,780.00,761.7
2018-12-10,11:35:00,DRY,1.65,11.45,22.5,780.00,635.7
2018-12-10,11:40:00,DRY,0.77,11.77,23.3,780.00,423.4
2018-12-10,11:45:00,DRY,0.90,11.75,25.0,780.00,446.2
2018-12-10,11:50:00,DRY,1.03,11.20,27.7,780.00,420.4
2018-12-10,11:55:00,DRY,0.60,11.15,28.5,780.00,314.0
2018-12-10,12:00:00,DRY,0.83,10.87,29.7,779.67,432.0
2018-12-10,12:05:00,DRY,0.25,11.00,32.0,779.50,304.2
2018-12-10,12:10:00,DRY,1.03,11.23,32.7,779.33,235.1
2018-12-10,12:15:00,DRY,0.95,10.30,32.0,779.50,249.3
2018-12-10,12:20:00,DRY,0.80,10.33,33.0,779.00,329.3
2018-12-10,12:25:00,DRY,0.70,10.55,32.0,779.00,548.2
2018-12-10,12:30:00,DRY,1.43,10.90,32.3,779.00,291.5
2018-12-10,12:35:00,DRY,0.95,10.00,33.5,779.00,283.6
2018-12-10,12:40:00,DRY,0.73,9.97,33.7,779.00,329.0
2018-12-10,12:45:00,DRY,0.70,10.30,33.5,779.00,339.4
2018-12-10,12:50:00,DRY,0.87,10.33,33.7,779.00,358.7
2018-12-10,12:55:00,DRY,0.85,10.35,34.0,779.00,357.0
2018-12-10,13:00:00,DRY,1.00,10.60,32.3,779.00,599.0
2018-12-10,13:05:00,DRY,1.40,10.35,29.0,779.00,457.7
2018-12-10,13:10:00,DRY,0.53,10.40,28.0,779.00,487.8
2018-12-10,13:15:00,DRY,0.65,10.65,30.0,779.00,548.4
2018-12-10,13:20:00,DRY,0.90,11.07,28.7,779.00,595.5
2018-12-10,13:25:00,DRY,1.25,11.40,30.5,779.00,729.1
2018-12-10,13:30:00,DRY,0.80,11.20,35.0,779.00,697.2
2018-12-10,13:35:00,DRY,0.60,10.90,32.0,779.00,688.3
2018-12-10,13:40:00,DRY,1.77,10.37,33.7,778.00,653.8
2018-12-10,13:45:00,DRY,0.75,9.85,35.0,778.00,646.1
2018-12-10,13:50:00,DRY,0.67,10.63,34.3,778.00,665.8
2018-12-10,13:55:00,DRY,1.20,10.95,33.5,778.00,667.5
2018-12-10,14:00:00,DRY,0.77,11.00,34.3,778.00,660.7
2018-12-10,14:05:00,DRY,1.35,11.05,35.5,778.00,741.7
2018-12-10,14:10:00,DRY,0.70,11.50,35.7,778.00,511.0
2018-12-10,14:15:00,DRY,0.50,11.15,35.5,778.00,583.5
2018-12-10,14:20:00,DRY,1.03,11.10,36.3,778.00,654.0
2018-12-10,14:25:00,DRY,0.85,11.35,36.0,778.00,464.4
2018-12-10,14:30:00,DRY,0.93,11.80,37.7,778.00,627.7
2018-12-10,14:35:00,DRY,1.65,12.00,37.5,778.00,467.8
2018-12-10,14:40:00,DRY,1.60,11.73,39.3,778.00,527.9
2018-12-10,14:45:00,DRY,1.15,11.45,40.5,778.00,592.6
2018-12-10,14:50:00,DRY,1.87,11.50,41.0,778.00,616.8
2018-12-10,14:55:00,DRY,1.80,11.25,41.5,778.00,588.7
2018-12-10,15:00:00,DRY,1.57,10.43,46.0,778.00,594.6
2018-12-10,15:05:00,DRY,1.40,11.15,42.5,778.00,445.1
2018-12-10,15:10:00,DRY,1.77,11.70,36.3,778.00,553.5
2018-12-10,15:15:00,DRY,1.85,11.80,36.5,778.00,563.2
2018-12-10,15:20:00,DRY,2.13,11.53,38.0,778.00,553.7
2018-12-10,15:25:00,DRY,2.95,11.25,35.5,778.00,547.7
2018-12-10,15:30:00,DRY,2.63,10.90,38.3,778.00,530.6
2018-12-10,15:35:00,DRY,2.45,11.00,37.5,778.00,354.3
2018-12-10,15:40:00,DRY,2.40,10.83,38.7,778.00,452.8
2018-12-10,15:45:00,DRY,1.80,10.70,41.0,778.00,447.2
2018-12-10,15:50:00,DRY,2.60,10.60,40.7,778.00,403.4
2018-12-10,15:55:00,DRY,1.60,10.65,39.5,778.00,370.1
2018-12-10,16:00:00,DRY,1.37,10.87,29.0,778.00,457.0
2018-12-10,16:05:00,DRY,3.65,10.65,31.0,778.00,363.7
2018-12-10,16:10:00,DRY,3.73,10.57,31.7,778.00,361.3
2018-12-10,16:15:00,DRY,2.75,10.00,37.0,778.00,374.9
2018-12-10,16:20:00,DRY,2.35,10.10,28.5,778.00,302.0
2018-12-10,16:25:00,DRY,3.30,10.20,21.5,778.00,361.6
2018-12-10,16:30:00,DRY,2.00,10.33,22.3,778.00,209.8
2018-12-10,16:35:00,DRY,3.85,10.00,24.0,778.00,311.3
2018-12-10,16:40:00,DRY,3.63,10.03,20.7,778.00,260.7
2018-12-10,16:45:00,DRY,2.55,10.10,21.5,778.00,244.4
2018-12-10,16:50:00,DRY,2.83,9.40,30.0,778.00,189.4
2018-12-10,16:55:00,DRY,1.85,9.90,19.5,778.00,260.1
2018-12-10,17:00:00,DRY,3.13,10.20,19.0,778.00,246.5
2018-12-10,17:05:00,DRY,2.95,10.00,19.0,778.00,228.2
2018-12-10,17:10:00,DRY,2.30,9.77,19.7,778.00,193.1
2018-12-10,17:15:00,DRY,2.80,9.85,17.5,778.00,175.1
2018-12-10,17:20:00,DRY,2.53,9.73,18.0,778.00,149.5
2018-12-10,17:25:00,DRY,2.50,9.70,17.5,778.00,130.7
2018-12-10,17:30:00,DRY,2.83,9.53,17.7,778.00,120.9
2018-12-10,17:35:00,DRY,2.95,9.30,17.0,778.00,98.3
2018-12-10,17:40:00,DRY,4.10,9.10,18.0,778.00,64.3
2018-12-10,17:45:00,DRY,3.65,8.90,21.0,778.00,40.9
2018-12-10,17:50:00,DRY,4.83,8.90,24.0,778.00,34.2
2018-12-10,17:55:00,DRY,4.95,8.80,21.0,778.00,27.7
2018-12-10,18:00:00,DRY,5.50,8.67,20.3,778.33,22.4
2018-12-10,18:05:00,DRY,5.95,8.50,20.0,778.50,16.6
2018-12-10,18:10:00,DRY,5.80,8.40,20.7,778.00,10.4
2018-12-10,18:15:00,DRY,5.50,8.30,21.5,778.50,6.1
2018-12-10,18:20:00,DRY,6.20,8.33,29.7,778.33,5.0
2018-12-10,18:25:00,DRY,6.05,8.45,29.0,778.50,3.0
2018-12-10,18:30:00,DRY,7.07,8.47,34.7,778.67,1.6
2018-12-10,18:35:00,DRY,8.45,8.35,33.0,778.50,1.4
2018-12-10,18:40:00,DRY,7.60,8.30,30.7,779.00,1.1
2018-12-10,18:45:00,DRY,6.80,8.15,32.5,779.00,0.8
2018-12-10,18:50:00,DRY,5.60,7.87,31.0,779.00,1.4
2018-12-10,18:55:00,DRY,5.20,7.95,37.5,779.00,1.0
2018-12-10,19:00:00,DRY,6.40,8.00,39.3,779.00,1.2
2018-12-10,19:05:00,DRY,6.20,7.70,37.0,779.00,0.9
2018-12-10,19:10:00,DRY,7.27,7.73,39.3,779.00,1.3
2018-12-10,19:15:00,DRY,8.25,7.90,46.5,779.00,1.1
2018-12-10,19:20:00,DRY,8.07,7.90,45.7,779.00,0.9
2018-12-10,19:25:00,DRY,6.85,7.90,43.0,779.00,1.2
2018-12-10,19:30:00,DRY,7.30,7.93,49.3,779.00,1.4
2018-12-10,19:35:00,DRY,7.70,7.85,46.0,779.00,1.3
2018-12-10,19:40:00,DRY,8.70,7.87,50.7,779.00,1.1
2018-12-10,19:45:00,DRY,6.35,7.85,42.5,779.00,1.0
2018-12-10,19:50:00,DRY,7.77,7.80,47.7,779.00,1.0
2018-12-10,19:55:00,DRY,7.85,7.85,51.0,779.00,1.1
2018-12-10,20:00:00,DRY,6.93,7.77,49.3,779.00,1.2
2018-12-10,20:05:00,DRY,6.75,7.65,51.0,779.00,1.4
2018-12-10,20:10:00,DRY,6.70,7.63,51.3,779.00,1.2
2018-12-10,20:15:00,DRY,7.35,7.60,52.5,779.00,1.1
2018-12-10,20:20:00,DRY,7.03,7.43,52.0,779.00,1.2
2018-12-10,20:25:00,DRY,5.45,7.40,50.5,779.00,1.5
2018-12-10,20:30:00,DRY,7.50,7.33,53.0,779.00,0.9
2018-12-10,20:35:00,DRY,6.35,7.20,50.0,779.00,1.2
2018-12-10,20:40:00,DRY,6.40,7.20,52.3,779.00,1.1
2018-12-10,20:45:00,DRY,6.55,7.15,50.0,779.00,1.2
2018-12-10,20:50:00,DRY,6.23,7.17,51.7,779.00,1.2
2018-12-10,20:55:00,DRY,7.65,7.25,50.0,779.00,1.4
2018-12-10,21:00:00,DRY,6.33,7.07,46.0,779.00,0.9